Live-Position
3D-Globus wird geladen...
Über Starlink 3102
Group: 3 satellites
Beschreibung wird geladen...
Nächste Überflüge
Passes for default location (London). Set your location on the main map for personalized predictions.
Höhenverlauf
Loading altitude history...
No altitude history available
Zweizeiliger Elementsatz
1 49151U 21082X 26121.71673816 -.00000158 00000-0 -54706-5 0 9997
2 49151 69.9993 120.7490 0003350 271.2100 88.8675 14.98330407256109
Epoch: 1. Mai 2026 •
Age: 8 hours
Aktueller Status
Höhe 595.2 km
Geschwindigkeit 7.56 km/s
Subsatellitenpunkt -69.62°S,
145.19°E
Startdatum 14. Sept. 2021
Alter 4.6 years
Typ internet
Startgruppe
Falcon 9 •
Group 2-1 •
39 satellites
Starlink 3096
49131
Starlink 3090 49132
Starlink 3077 49133
Starlink 3078 49134
Starlink 3073 49135
Starlink 3055 49137
Starlink 3058 49138
Starlink 3057 49139
Starlink 3093 49141
Starlink 3109 49143
Starlink 3100 49144
Starlink 3119 49145
Starlink 3116 49146
Starlink 3071 49147
Starlink 3048 49148
Starlink 3072 49153
Starlink 3068 49154
Starlink 3060 49155
Starlink 3085 49156
Starlink 3051 49157
...and 18 more
Technische Details
Klassifizierung Payload
Masse 297.00 kg
Trockenmasse 275.00 kg
Gesamtmasse 297.00 kg
Länge 0.20 m
Durchmesser 2.80 m
Spannweite 9.00 m
Form Box + pan
Hersteller SPXS
Bus-Typ Starlink
Phasenstatus In Orbit
Besitzer/Staat SPXS/US
Most Searched
Loading...